Regional Weather Roundup
Issued by NWS

Home | Current Version | Previous Version | Text Only | Print | Product List | Glossary On
Versions: 1 2 3 4 5 6 7 8 9 10 11 12 13 14 15 16 17 18 19 20 21 22 23 24 25 26 27 28 29 30 31 32 33 34 35 36 37 38 39 40 41 42 43 44 45 46 47 48 49 50
000
ASUS43 KTOP 201259
RWRKS

WEATHER ROUNDUP FOR KANSAS
NATIONAL WEATHER SERVICE GOODLAND KS
700 AM CST SAT DEC 20 2014

NOTE:  "FAIR" INDICATES FEW OR NO CLOUDS BELOW 12,000 FEET WITH NO
SIGNIFICANT WEATHER AND/OR OBSTRUCTIONS TO VISIBILITY.

KSZ001>006-013>018-027>032-041>047-201400-
NORTHWEST KANSAS

CITY           SKY/WX    TMP DP  RH WIND       PRES   REMARKS
GOODLAND       CLEAR     29  25  85 W9        30.02S
HAYS           PTCLDY    27  18  69 W3        30.08R
HILL CITY      CLEAR     26  23  88 SW5       30.06R
RUSSELL        CLEAR     27  26  96 S8        30.08R FOG
$$

KSZ061>065-074>080-084>089-201400-
SOUTHWEST KANSAS

CITY           SKY/WX    TMP DP  RH WIND       PRES   REMARKS
DODGE CITY     MOCLDY    32  29  88 SW12      30.09S WCI  23
ELKHART          N/A    N/A N/A N/A MISG        N/A
GARDEN CITY    PTCLDY    23  23 100 SW6       30.07S
GREAT BEND     PTCLDY    30  27  86 S7        30.11S
LIBERAL        CLOUDY    28  25  86 SW10      30.11R VSB 1   WCI  19
$$

KSZ066>073-081>083-090>101-201400-
SOUTHEAST KANSAS

CITY           SKY/WX    TMP DP  RH WIND       PRES   REMARKS
CHANUTE        CLOUDY    36  33  89 SW6       30.22R
COFFEYVILLE    CLOUDY    37  34  89 S6        30.24R
HUTCHINSON     CLEAR     33  30  88 S10       30.14R FOG     WCI  25
MEDICINE LODGE   N/A     34  34 100 S6        30.15S
NEWTON         CLEAR     32  27  80 S9        30.16R
PARSONS        CLOUDY    37  34  89 S3        30.24R
WICHITA INTL   PTCLDY    33  30  88 S10       30.17R FOG     WCI  25
WICHITA JABRA  CLEAR     33  31  92 S8        30.17R
WICHITA MCCONL CLOUDY    34  33  96 S8        30.18R
WINFIELD       CLOUDY    37  35  92 S9        30.20R
$$

KSZ007>012-019>026-033>040-048>060-102>105-201400-
NORTHEAST KANSAS

CITY           SKY/WX    TMP DP  RH WIND       PRES   REMARKS
CONCORDIA      CLEAR     29  28  96 SW6       30.08R FOG
EMPORIA        MOCLDY    32  30  92 S14       30.16R WCI  22
LAWRENCE       PTCLDY    33  29  85 S8        30.17F
MANHATTAN      CLEAR     31  30  96 SW9       30.12S FOG
OLATHE IND     CLOUDY    32  30  92 S8        30.19S
OLATHE EXE     CLOUDY    33  30  88 SW6       30.18S
SALINA         FOG       33  32  96 SW10      30.13S VSB 1   WCI  25
TOPEKA BILLARD CLEAR     32  29  88 SE5       30.16F
TOPEKA FORBES  CLEAR     34  30  85 S10       30.15S WCI  26
$$


USA.gov is the U.S. government's official web portal to all federal, state and local government web resources and services.